Location: Invercargill
(46.4000°S, 168.3500°E)
Time: 02:26:10
(UTC+12:00)

Cosmos 1980 Rocket - Pass Details

Date: 24 January 2019
Orbit: 828 x 851 km, 71.0° (Epoch: 19 April)

Event Time Altitude Azimuth Distance (km) Brightness Sun altitude
Rises 22:46:52 0° 304° (NW) 3,423 5.5 -11.4°
Reaches altitude 10° 22:49:35 10° 294° (WNW) 2,493 4.9 -11.7°
Maximum altitude 22:54:40 32° 231° (SW) 1,441 4.2 -12.4°
Drops below altitude 10° 22:59:48 10° 168° (SSE) 2,505 5.2 -13.0°
Sets 23:02:33 0° 158° (SSE) 3,443 5.7 -13.3°
